Showing default

COSMOS 2546, 45608

Orbit data source: Space-Track

COSMOS 2546, 45608 is a payload satellite owned by VVKO VKS (CIS) in HEO that was launched on Fri, 22 May 2020 UTC via a SOYUZ-2-1B launch vehicle from the Plesetsk Missile And Space Complex (PKMTR). Payloads include a variety of satellites, spacecraft, and rockets equipped with specific instruments for various scientific and technological missions. These include communications satellites like Starlink; space stations such as the ISS; scientific satellites like the Hubble; Earth observation satellites from companies like Planet Labs, Umbra, and HawkEye 360; GPS; miniature CubeSats for education and research; and military/defense satellites.

Loading next visibility...
COSMOS 2546 details
Identifier
45608, 2020-031A
Orbit
HEO
Last TLE update20 hours ago
Origin
Flag of CISVVKO VKS (CIS)
ManufacturerRKKE/KOMET
MissionOperational Defense Early Warn
Bus & Motor14F142, Unknown motor
Mass2,550 kg wet, ~2,000 kg dry
Launch date (UTC)
2020-05-22 (5 years ago)
Launch vehicle
SOYUZ-2-1B
Launch site
Plesetsk Missile And Space Complex (PKMTR)
Object type
Payload
Rocket body
Debris
Shape & HBRBox + 2 Pan, Unknown HBR
Radar Cross Section14.304 m², Large (>1 m²)

Expand to show TLE details & history

TLE from 20 hours ago
0 COSMOS 2546
1 45608U 20031A   24360.66390382  .00000196  00000-0  00000-0 0  9997
2 45608  63.1040 130.0776 6790476 264.8861  20.8656  2.00615264 33668
Epoch: 2024-12-25T15:56Z
Definitive object data (Epoch: 2024-12-25T15:56:01.29Z)
Latitude0.00004°
Longitude156.39142°
Altitude8,885.181 km
Speed6.101 km/s
True Right ascension08h 40m 12s
True Declination0° 00' 00"
Sunlit
Object was in daylight at TLE epoch
Visualization TLE readout
Latitude54.8248°
Longitude-69.67472°
Altitude29,027.642 km
Speed2.741 km/s
Apparent Right ascension18h 30m 11s
Apparent Declination49° 57' 20"
Sunlit
Object is in daylight
Visualization observer readout
Local Sidereal Time11:40:53
Azimuth42.946° NE
Elevation22.698°
Doppler factor1
Orbital elements
Apogee altitude38,208.964 km
Perigee altitude2,144.752 km
Semi-major axis26,554.995 km
Eccentricity0.6790476
Inclination63.104°
RAAN130.0776°
Arg. of periapsis264.8861°
True anomaly95.20852°
Mean anomaly20.8656°
Eccentric anomaly51.1773°
Mean motion0.50156 °/min
BSTARUnknown
Orbital period717.76 mins
Loading maneuver chart data...
Loading historical data...
Loading historical data...
Loading historical data...
Loading historical data...
Loading historical data...
Loading historical data...
Loading historical data...
Other satellites on launch #31 in the year 2020 (2020-05-22 UTC)

COSMOS 2546 Visibility forecast

Observer location: undefined°, undefined

Span
Click to sort rows by Start time (UTC) header in descending order
Start Az.
Max El. time (UTC)
Max El. Az.
Max El.
End time (UTC)
End Az.
70 mins2024-12-26 12:19:23.591Z42.96° NE2024-12-26 12:19:23.591Z42.96° NE21.098°2024-12-26 13:29:23.591Z55.875° ENE
488 mins2024-12-26 17:25:23.591Z306.573° NW2024-12-26 22:33:23.591Z326.984° NNW22.53°2024-12-27 01:33:23.591Z301.175° NW
447 mins2024-12-27 04:52:23.591Z65.014° ENE2024-12-27 08:48:23.591Z36.242° NE27.823°2024-12-27 12:19:23.591Z43.537° NE
|